TimePST,TemperatureF,Dew PointF,Humidity,Sea Level PressureIn,VisibilityMPH,Wind Direction,Wind SpeedMPH,Gust SpeedMPH,PrecipitationIn,Events,Conditions,WindDirDegrees,DateUTC
12:53 AM,57.0,48.0,72,30.08,10.0,SSW,5.8,-,N/A,,Overcast,200,2013-03-03 08:53:00
1:53 AM,55.9,46.9,72,30.07,10.0,SSW,6.9,-,N/A,,Overcast,200,2013-03-03 09:53:00
2:53 AM,57.0,46.9,69,30.05,10.0,SW,10.4,-,N/A,,Overcast,220,2013-03-03 10:53:00
4:53 AM,55.0,46.9,74,30.05,10.0,South,9.2,-,N/A,,Overcast,190,2013-03-03 12:53:00
5:53 AM,54.0,46.9,77,30.04,10.0,South,9.2,-,N/A,,Overcast,180,2013-03-03 13:53:00
6:53 AM,54.0,46.9,77,30.03,10.0,South,3.5,-,N/A,,Overcast,170,2013-03-03 14:53:00
7:53 AM,55.0,48.0,77,30.05,10.0,Calm,Calm,-,N/A,,Mostly Cloudy,0,2013-03-03 15:53:00
8:53 AM,60.1,48.0,64,30.06,10.0,Calm,Calm,-,N/A,,Clear,0,2013-03-03 16:53:00
9:53 AM,63.0,46.9,56,30.06,10.0,Calm,Calm,-,N/A,,Overcast,0,2013-03-03 17:53:00
10:53 AM,64.0,48.0,56,30.06,10.0,Calm,Calm,-,N/A,,Mostly Cloudy,0,2013-03-03 18:53:00
11:53 AM,66.0,46.9,50,30.05,10.0,WNW,5.8,-,N/A,,Partly Cloudy,290,2013-03-03 19:53:00
12:53 PM,66.9,46.9,49,30.03,10.0,NE,3.5,-,N/A,,Mostly Cloudy,50,2013-03-03 20:53:00
1:53 PM,62.1,46.0,56,30.03,10.0,North,4.6,-,N/A,,Overcast,360,2013-03-03 21:53:00
2:53 PM,63.0,50.0,63,30.03,10.0,Calm,Calm,-,N/A,,Overcast,0,2013-03-03 22:53:00
3:53 PM,64.9,51.1,61,30.01,10.0,East,3.5,-,N/A,,Partly Cloudy,80,2013-03-03 23:53:00
4:53 PM,63.0,48.0,58,30.02,10.0,Variable,5.8,-,N/A,,Clear,0,2013-03-04 00:53:00
5:53 PM,59.0,48.0,67,30.02,10.0,WSW,5.8,-,N/A,,Mostly Cloudy,240,2013-03-04 01:53:00
7:53 PM,57.0,43.0,59,30.04,10.0,SW,6.9,-,N/A,,Overcast,220,2013-03-04 03:53:00
8:53 PM,53.1,43.0,69,30.05,10.0,SW,8.1,-,N/A,,Mostly Cloudy,230,2013-03-04 04:53:00
9:53 PM,52.0,43.0,71,30.05,10.0,SW,5.8,-,N/A,,Scattered Clouds,230,2013-03-04 05:53:00
10:53 PM,50.0,43.0,77,30.06,10.0,WSW,4.6,-,N/A,,Clear,240,2013-03-04 06:53:00
11:53 PM,50.0,43.0,77,30.04,10.0,SW,9.2,-,N/A,,Clear,230,2013-03-04 07:53:00